Change the Weather History Date:

Thursday, February 7, 2013

  Actual Average Record
Temperature  
Mean Temperature 17 °F -  
Max Temperature 19 °F 28 °F 50 °F (2011)
Min Temperature 15 °F 20 °F 1 °F (2012)
Degree Days  
Heating Degree Days 48    
Moisture  
Dew Point 14 °F    
Average Humidity 87    
Maximum Humidity 100    
Minimum Humidity 68    
Precipitation  
Precipitation 0.00 in 0.06 in - ()
Sea Level Pressure  
Sea Level Pressure 29.36 in    
Wind  
Wind Speed 26 mph ()    
Max Wind Speed 46 mph    
Max Gust Speed -    
Visibility 4.4 miles    
Events Fog    
Averages and records for this station are not official NWS values.
T = Trace of Precipitation, MM = Missing Value Source: Averaged Metar Reports

Daily Weather History Graph

Daily Weather History Graph

Search for Another Location

Airport or City:

Trip Planner

Search our weather history database for the weather conditions in past years. The results will help you decide how hot, cold, wet, or windy it might be!

Date:

Astronomy

Feb. 07, 2013 Rise Set
Actual Time 7:27 AM CET 5:35 PM CET
Civil Twilight 6:57 AM CET 6:05 PM CET
Nautical Twilight 6:23 AM CET 6:40 PM CET
Astronomical Twilight 5:49 AM CET 7:13 PM CET
Moon 4:56 AM CET (2/7) 2:37 PM CET (2/7)
Length of Visible Light 11h 08m
Length of Day
10h 07m
Waning Crescent, 11% of the Moon is Illuminated
Feb 7
Waning Crescent
Feb 10
New
Feb 17
First Quarter
Feb 25
Full
Mar 4
Last Quarter

Hourly Weather History & Observations

Time (CET) Temp. Windchill Dew Point Humidity Pressure Visibility Wind Dir Wind Speed Gust Speed Precip Events Conditions
12:55 AM 17.6 °F 3.7 °F 14.0 °F 86% 29.30 in - West 13.8 mph - N/A   Clear
1:00 AM 18 °F - 14 °F 77%  in 19 mi West 13.8 mph - -  
1:55 AM 17.6 °F 1.7 °F 14.0 °F 86% 29.30 in - West 18.4 mph - N/A   Clear
2:55 AM 19.4 °F 2.5 °F 12.2 °F 74% 29.30 in - North 23.0 mph - N/A   Clear
3:55 AM 19.4 °F 2.1 °F 12.2 °F 74% 29.30 in - NNE 24.2 mph - N/A   Clear
4:55 AM 19.4 °F 1.1 °F 10.4 °F 68% 29.30 in - NNE 27.6 mph - N/A   Clear
5:55 AM 17.6 °F -3.6 °F 8.6 °F 68% 29.30 in - NNE 36.8 mph - N/A   Clear
6:55 AM 15.8 °F -6.8 °F 10.4 °F 79% 29.27 in - NNE 40.3 mph - N/A   Clear
7:00 AM 16 °F - 11 °F 71%  in 12 mi NNE 40.3 mph - -   Partly Cloudy
7:55 AM 15.8 °F -4.1 °F 12.2 °F 86% 29.30 in 0.1 mi NNE 28.8 mph - N/A Fog Light Freezing Fog
8:55 AM 15.8 °F -6.8 °F 15.8 °F 100% 29.30 in 0.1 mi North 40.3 mph - N/A Fog Light Freezing Fog
9:55 AM 17.6 °F -2.5 °F 15.8 °F 93% 29.33 in 0.1 mi North 32.2 mph - N/A Fog Light Freezing Fog
10:55 AM 17.6 °F -1.6 °F 17.6 °F 100% 29.33 in 0.1 mi North 28.8 mph - N/A Fog Light Freezing Fog
11:55 AM 17.6 °F -2.5 °F 17.6 °F 100% 29.36 in 0.1 mi North 32.2 mph - N/A Fog Light Freezing Fog
12:55 PM 17.6 °F -2.8 °F 17.6 °F 100% 29.36 in 0.1 mi North 33.4 mph - N/A Fog Light Freezing Fog
1:00 PM 18 °F - 17 °F 96%  in 0 mi North 33.4 mph - - Fog Heavy Fog
1:55 PM 19.4 °F -0.0 °F 19.4 °F 100% 29.36 in 0.1 mi North 32.2 mph - N/A Fog Light Freezing Fog
2:55 PM 15.8 °F -6.6 °F 15.8 °F 100% 29.36 in 0.2 mi NNE 39.1 mph - N/A Fog Light Freezing Fog
3:55 PM 15.8 °F -7.9 °F 14.0 °F 93% 29.39 in 6.2 mi NNE 46.0 mph - N/A   Scattered Clouds
4:55 PM 15.8 °F -7.5 °F 14.0 °F 93% 29.39 in 6.2 mi North 43.7 mph - N/A   Scattered Clouds
5:55 PM 15.8 °F -7.9 °F 14.0 °F 93% 29.39 in 6.2 mi North 46.0 mph - N/A   Scattered Clouds
6:55 PM 15.8 °F -7.7 °F 14.0 °F 93% 29.42 in 6.2 mi NNE 44.9 mph - N/A   Mostly Cloudy
7:00 PM 16 °F - 15 °F 91%  in 12 mi NNE 44.9 mph - -   Partly Cloudy
7:55 PM 15.8 °F -7.0 °F 12.2 °F 86% 29.44 in 6.2 mi North 41.4 mph - N/A   Mostly Cloudy
8:55 PM 15.8 °F -6.1 °F 10.4 °F 79% 29.47 in 6.2 mi North 36.8 mph - N/A   Scattered Clouds
9:55 PM 15.8 °F -4.4 °F 10.4 °F 79% 29.47 in 6.2 mi NNE 29.9 mph - N/A   Mostly Cloudy
10:55 PM 15.8 °F -4.1 °F 12.2 °F 86% 29.47 in 0.7 mi NNE 28.8 mph - N/A   Mist